TimeEST,TemperatureF,Dew PointF,Humidity,Sea Level PressureIn,VisibilityMPH,Wind Direction,Wind SpeedMPH,Gust SpeedMPH,PrecipitationIn,Events,Conditions,WindDirDegrees,DateUTC
12:53 AM,48.0,42.1,80,30.13,5.0,ESE,3.5,-,N/A,,Haze,110,2012-11-10 05:53:00
1:53 AM,46.9,43.0,86,30.12,4.0,SE,4.6,-,0.00,,Overcast,130,2012-11-10 06:53:00
2:53 AM,46.9,44.1,90,30.13,4.0,SE,5.8,-,N/A,,Overcast,130,2012-11-10 07:53:00
3:53 AM,48.0,44.1,86,30.13,5.0,SE,4.6,-,N/A,,Overcast,140,2012-11-10 08:53:00
4:53 AM,48.0,44.1,86,30.13,5.0,SE,4.6,-,N/A,,Overcast,130,2012-11-10 09:53:00
5:53 AM,46.9,44.1,90,30.12,5.0,ESE,3.5,-,N/A,,Overcast,120,2012-11-10 10:53:00
6:53 AM,46.9,44.1,90,30.12,4.0,Calm,Calm,-,N/A,,Overcast,0,2012-11-10 11:53:00
7:53 AM,46.9,44.1,90,30.13,3.0,Calm,Calm,-,N/A,,Overcast,0,2012-11-10 12:53:00
8:53 AM,50.0,45.0,83,30.14,5.0,SSE,3.5,-,N/A,,Haze,150,2012-11-10 13:53:00
9:53 AM,51.1,44.1,77,30.14,6.0,South,4.6,-,N/A,,Haze,170,2012-11-10 14:53:00
10:49 AM,53.6,44.6,72,30.12,9.0,South,5.8,-,N/A,,Overcast,170,2012-11-10 15:49:00
10:53 AM,55.0,45.0,69,30.13,9.0,South,6.9,-,N/A,,Overcast,170,2012-11-10 15:53:00
11:18 AM,55.4,44.6,67,30.11,10.0,SSW,10.4,-,N/A,,Overcast,200,2012-11-10 16:18:00
11:53 AM,55.0,44.1,67,30.09,10.0,South,6.9,-,N/A,,Overcast,180,2012-11-10 16:53:00
12:22 PM,57.2,44.6,63,30.07,10.0,SSE,8.1,-,N/A,,Overcast,160,2012-11-10 17:22:00
12:53 PM,57.0,45.0,64,30.06,10.0,South,6.9,-,N/A,,Partly Cloudy,190,2012-11-10 17:53:00
1:53 PM,61.0,46.0,58,30.06,10.0,SSW,11.5,-,N/A,,Mostly Cloudy,200,2012-11-10 18:53:00
2:53 PM,63.0,46.9,56,30.05,10.0,South,10.4,-,N/A,,Scattered Clouds,190,2012-11-10 19:53:00
3:53 PM,62.1,46.9,58,30.05,10.0,South,6.9,-,N/A,,Clear,170,2012-11-10 20:53:00
4:53 PM,60.1,48.0,64,30.04,10.0,South,6.9,-,N/A,,Partly Cloudy,170,2012-11-10 21:53:00
5:53 PM,60.1,46.9,62,30.04,10.0,South,8.1,-,N/A,,Clear,170,2012-11-10 22:53:00
6:53 PM,61.0,46.9,60,30.02,10.0,South,11.5,-,N/A,,Clear,170,2012-11-10 23:53:00
7:53 PM,62.1,48.0,60,30.03,10.0,South,12.7,19.6,N/A,,Clear,190,2012-11-11 00:53:00
8:53 PM,59.0,48.0,67,30.05,10.0,SSW,6.9,-,N/A,,Clear,200,2012-11-11 01:53:00
9:53 PM,57.0,48.0,72,30.06,10.0,SSW,6.9,-,N/A,,Clear,200,2012-11-11 02:53:00
11:53 PM,60.1,46.0,60,30.05,10.0,SSW,10.4,-,N/A,,Clear,210,2012-11-11 04:53:00